weather.gov     
National Weather Service

Terminal Aerodrome Forecast
NWS Homepage
This page is being discontinued on March 12, 2014.
The same data is available at this site. Please update your bookmarks.
Thank you, and we apologize for the inconvenience.
Please send an email to SR-SRH.Webmaster@noaa.gov with any concerns.


Current Version
Previous Version:    01  02  03  04  05  06  07  08  09  10  11  12  13  14  15  16  17  18  19  20  21  22  23  24  25  26  27  
[Printable]
312
FTAK31 PAJN 201700
TAFAPG
TAF
PAPG 201727Z 2018/2118 12010KT P6SM -RA SCT030 OVC050 WS020/12035KT
     FM202100 10010KT 4SM -RA BKN030 OVC040
     FM210500 VRB04KT P6SM -RA SCT015 OVC030
      AMD LTD TO CLD VIS AND WIND 2106/2115=


U.S. Dept. of Commerce
NOAA National Weather Service
1325 East West Highway
Silver Spring, MD 20910
E-mail: w-nws.webmaster@noaa.gov
Page last modified: May 16, 2007
NATIONAL WEATHER SERVICE: for Safety, for Work, for Fun - FOR LIFE